Retour au catalogue

SHIJIAN 6 02A

SJ-6 02A

ActifScienceSSO
NORAD 29505·PAYLOAD·🇨🇳 China

Lancé Oct 23, 2006 depuis Taiyuan Satellite Launch Center

Loading…

Prochains Passages (prochaines 24 heures)

TLE

FraisSource: Space-Track

Époque: Sep 14, 2026, 13:52 UTC

1 29505U 06046A   26257.57785608  .00004443  00000-0  22323-3 0  9995
2 29505  97.6282 299.3349 0003048 160.1150 200.0203 15.17801536 85822

Suivez SHIJIAN 6 02A en temps réel avec AllMySat

Download on the App Store